Regional Weather Roundup
Issued by NWS Cleveland, OH

Home | Current Version | Previous Version | Graphics & Text | Print | Product List | Glossary On
Versions: 1 2 3 4 5 6 7 8 9 10 11 12 13 14 15 16 17 18 19 20 21 22 23 24 25 26 27 28 29 30 31 32 33 34 35 36 37 38 39 40 41 42 43 44 45 46 47 48 49 50
000
ASUS41 KCLE 272002
RWRCLE
OHIO REGIONAL WEATHER ROUNDUP
NATIONAL WEATHER SERVICE CLEVELAND, OH
300 PM EST FRI FEB 27 2015

NOTE: "FAIR" INDICATES FEW OR NO CLOUDS BELOW 12,000 FEET WITH NO
SIGNIFICANT WEATHER AND/OR OBSTRUCTIONS TO VISIBILITY.

OHZ001>008-015>018-024>027-034-035-043-044-272100-
   NORTHWEST OHIO

CITY           SKY/WX    TMP DP  RH WIND       PRES   REMARKS
DEFIANCE       SUNNY     17  -2  43 SW8       30.59S WCI   7
FINDLAY        SUNNY     14  -1  51 W10       30.57S WCI   1
TOLEDO EXPRESS SUNNY     14  -2  49 W6        30.58R WCI   5
TOLEDO EXEC    SUNNY     14   0  53 SW13      30.59R WCI   0
LIMA           SUNNY     16  -1  47 W9        30.56S WCI   4
$$

OHZ009>014-019>023-028>033-038-089-272100-
   NORTHEAST OHIO

CITY           SKY/WX    TMP DP  RH WIND       PRES   REMARKS
CLE-HOPKINS    PTSUNNY   14   0  53 W9        30.60R WCI   2
CLE-LAKEFRONT  SUNNY     14   3  61 W6        30.59R WCI   5
CUY CO. ARPT   MOSUNNY   16   3  57 W12       30.56S WCI   3
LORAIN-ELYRIA  CLOUDY    13   1  59 W8        30.57S WCI   2
ASHTABULA      MOSUNNY   13  -3  49 VRB5      30.55R WCI   5
AKRON-CANTON   MOSUNNY   14  -2  49 W10       30.53R WCI   1
WOOSTER        MOSUNNY   14   0  53 NW6       30.54S WCI   5
MANSFIELD      MOSUNNY   13  -1  54 NW7       30.52S WCI   3
YOUNGSTOWN     PTSUNNY   15  -1  49 VRB5      30.51S WCI   8
$$

OHZ042-051>053-060>062-070>072-077>081-272100-
  SOUTHWEST OHIO

CITY           SKY/WX    TMP DP  RH WIND       PRES   REMARKS
CINC-COVINGTON MOSUNNY   20   0  41 NW3       30.56F
CINC-LUNKEN    MOSUNNY   23   2  40 N6        30.61F WCI  16
HAMILTON       SUNNY     21   2  43 W6        30.61S WCI  13
DAYTON         PTSUNNY   20   5  52 N9        30.57S WCI   9
WRIGHT-PAT AFB MOSUNNY   18   0  46 W9        30.58S WCI   7
DAYTON GENERAL MOSUNNY   19   1  45 NW9       30.56S WCI   8
WILMINGTON     MIX PCPN  17  -2  43 NW9       30.55S WCI   6
$$

OHZ036-037-039>041-045>050-054>059-063>069-073>076-082>088-272100-
  CENTRAL AND SOUTHEAST OHIO

CITY           SKY/WX    TMP DP  RH WIND       PRES   REMARKS
COLUMBUS       PTSUNNY   17   0  47 W9        30.57S WCI   6
OSU AIRPORT    PTSUNNY   17   1  49 W10G16    30.57R WCI   5
BOLTON FIELD   MOSUNNY   18   1  49 NW8       30.58R WCI   7
RICKENBACK AFB CLOUDY    18   4  55 W10       30.58S WCI   6
NEWARK         FLURRIES  16   8  71 W5        30.56S WCI   9
MARION         SUNNY     14  -3  47 W7        30.56S WCI   4
LANCASTER      CLOUDY    17   4  56 W9        30.58R WCI   6
ZANESVILLE     CLOUDY    17   0  47 VRB7      30.56S WCI   8
NEW PHILLY     SUNNY     17  -2  43 NW6       30.57S WCI   9
$$


USA.gov is the U.S. government's official web portal to all federal, state and local government web resources and services.